Location: Newark
(11.5710°N, 104.9241°E)
Time: 21:42:08
(UTC+00:00)

SO-50 - Visible Passes

Search period start: 28 March 2020 00:00
Search period end: 07 April 2020 00:00
Orbit: 602 x 684 km, 64.6° (Epoch: 27 March)

Date Brightness Start Highest point End Pass type
(mag) Time Alt. Az. Time Alt. Az. Time Alt. Az.
28 Mar ? 22:08:24 10° SSW 22:13:14 80° ESE 22:18:05 10° NNE visible
29 Mar ? 20:55:23 10° SE 20:58:04 15° ESE 21:00:46 10° ENE visible
29 Mar ? 22:33:55 10° SW 22:38:14 32° WNW 22:42:32 10° N visible
30 Mar ? 21:19:50 20° S 21:22:56 46° ESE 21:27:34 10° NE visible
31 Mar ? 21:45:47 31° SW 21:47:51 53° WNW 21:52:35 10° N visible
01 Apr ? 20:33:45 25° E 20:33:45 25° E 20:36:44 10° NE visible
01 Apr ? 22:11:27 16° W 22:12:55 18° WNW 22:16:08 10° NNW visible
02 Apr ? 20:59:13 41° NNE 20:59:13 41° NNE 21:02:22 10° NNE visible
03 Apr ? 21:24:29 21° NNW 21:24:29 21° NNW 21:26:40 10° N visible
